This is the latest recevied weather packets stored in our database for station/object KE0PRS. If no packets are shown the sender has not sent any weather packets the latest 10 day(s).
| Time | Temp. | Humidity | Pressure | Rain* | Wind** | Luminosity | Snow |
|---|---|---|---|---|---|---|---|
| 1777384378 | 6.67° C | 77% | 1017.7 hPa | 0 mm | - | 90 W/m² | - |
| 1777384074 | 6.67° C | 77% | 1017.9 hPa | 0 mm | - | 94 W/m² | - |
| 1777383770 | 6.67° C | 77% | 1017.9 hPa | 0 mm | - | 105 W/m² | - |
| 1777383467 | 6.67° C | 78% | 1018.2 hPa | 0 mm | - | 86 W/m² | - |
| 1777383162 | 6.67° C | 78% | 1018 hPa | 0 mm | - | 91 W/m² | - |
| 1777382860 | 6.67° C | 78% | 1017.8 hPa | 0 mm | - | 107 W/m² | - |
| 1777382555 | 6.67° C | 79% | 1017.5 hPa | 0 mm | - | 96 W/m² | - |
| 1777382251 | 6.67° C | 79% | 1017.5 hPa | 0 mm | - | 88 W/m² | - |
| 1777381942 | 6.67° C | 80% | 1017.4 hPa | 0 mm | - | 97 W/m² | - |
| 1777381641 | 6.11° C | 82% | 1017.2 hPa | 0 mm | - | 53 W/m² | - |
| 1777381338 | 6.11° C | 82% | 1017 hPa | 0 mm | - | 50 W/m² | - |
| 1777381034 | 6.11° C | 83% | 1017 hPa | 0 mm | - | 49 W/m² | - |
| 1777380731 | 5.56° C | 85% | 1017.2 hPa | 0 mm | - | 39 W/m² | - |
| 1777380427 | 5.56° C | 86% | 1017 hPa | 0 mm | - | 42 W/m² | - |
| 1777380124 | 5.56° C | 86% | 1017.2 hPa | 0 mm | - | 34 W/m² | - |
| 1777379820 | 5.56° C | 87% | 1016.7 hPa | 0 mm | - | 31 W/m² | - |
| 1777379516 | 5° C | 87% | 1016.9 hPa | 0 mm | - | 28 W/m² | - |
| 1777379211 | 5° C | 87% | 1016.9 hPa | 0 mm | - | 26 W/m² | - |
| 1777378906 | 5° C | 86% | 1017.2 hPa | 0 mm | - | 23 W/m² | - |
| 1777378603 | 5° C | 86% | 1017 hPa | 0 mm | - | 20 W/m² | - |
| 1777378298 | 5° C | 87% | 1016.9 hPa | 0 mm | - | 16 W/m² | - |
| 1777377998 | 5° C | 88% | 1016.9 hPa | 0 mm | - | 9 W/m² | - |
| 1777377697 | 5° C | 88% | 1016.8 hPa | 0 mm | - | 7 W/m² | - |
| 1777377393 | 5° C | 89% | 1016.7 hPa | 0 mm | - | 6 W/m² | - |
| 1777377090 | 5° C | 90% | 1017 hPa | 0 mm | - | 4 W/m² | - |
* Rain latest hour (hover to see other rain measurements)
** Current wind speed in m/s (hover to see current wind gust speed)